Location: Canazei
(46.4667°N, 11.7667°E)
Time: 05:17:41
(UTC+00:00)

Meteor 1-19 Rocket - Pass Details

Date: 21 April 2021
Orbit: 807 x 928 km, 81.2° (Epoch: 15 May)

Event Time Altitude Azimuth Distance (km) Brightness Sun altitude
Exits shadow 00:46:27 67° 115° (ESE) 917 4.2 -27.9°
Maximum altitude 00:46:42 68° 97° (E) 911 4.3 -27.9°
Drops below altitude 10° 00:52:10 10° 16° (NNE) 2,441 7.5 -27.5°
Sets 00:54:34 0° 14° (NNE) 3,366 8.5 -27.3°
